owner,sensor,date,latitude,longitude,vertical_datum,wind_speed,wind_to_direction,wind_speed_of_gust,qcFlag 
NDBC,ioos:station:wmo:42003:1,2010-06-01T21:00:00Z,26.0070,-85.6480,5.0,0.5,80.0,,'1111122,1111122,1111122' 
NDBC,ioos:station:wmo:42003:1,2010-06-01T22:00:00Z,26.0070,-85.6480,5.0,1.5,140.0,,'1111122,1111122,1111122' 
NDBC,ioos:station:wmo:42003:1,2010-06-01T23:00:00Z,26.0070,-85.6480,5.0,0.5,120.0,,'1111122,1111122,1111122' 
NDBC,ioos:station:wmo:42003:1,2010-06-02T04:00:00Z,26.0070,-85.6480,5.0,2.6,80.0,,'1111122,1111122,1111122' 
NDBC,ioos:station:wmo:42003:1,2010-06-02T05:00:00Z,26.0070,-85.6480,5.0,2.6,90.0,,'1111122,1111122,1111122' 
NDBC,ioos:station:wmo:42003:1,2010-06-02T06:00:00Z,26.0070,-85.6480,5.0,1.5,70.0,,'1111122,1111122,1111122' 
NDBC,ioos:station:wmo:42003:1,2010-06-02T07:00:00Z,26.0070,-85.6480,5.0,1.5,80.0,,'1111122,1111122,1111122' 
NDBC,ioos:station:wmo:42003:1,2010-06-02T08:00:00Z,26.0070,-85.6480,5.0,1.5,80.0,,'1111122,1111122,1111122' 
NDBC,ioos:station:wmo:42003:1,2010-06-02T09:00:00Z,26.0070,-85.6480,5.0,3.6,110.0,,'1111122,1111122,1111122' 
NDBC,ioos:station:wmo:42003:1,2010-06-02T10:00:00Z,26.0070,-85.6480,5.0,3.6,110.0,,'1111122,1111122,1111122' 
NDBC,ioos:station:wmo:42003:1,2010-06-02T11:00:00Z,26.0070,-85.6480,5.0,3.6,130.0,,'1111122,1111122,1111122' 
NDBC,ioos:station:wmo:42003:1,2010-06-02T12:00:00Z,26.0070,-85.6480,5.0,3.6,160.0,,'1111122,1111122,1111122' 
NDBC,ioos:station:wmo:42003:1,2010-06-02T13:00:00Z,26.0070,-85.6480,5.0,3.6,160.0,,'1111122,1111122,1111122' 
NDBC,ioos:station:wmo:42003:1,2010-06-02T15:00:00Z,26.0070,-85.6480,5.0,2.6,160.0,,'1111122,1111122,1111122' 
NDBC,ioos:station:wmo:42003:1,2010-06-02T17:00:00Z,26.0070,-85.6480,5.0,0.5,150.0,,'1111122,1111122,1111122' 
NDBC,ioos:station:wmo:42003:1,2010-06-02T18:00:00Z,26.0070,-85.6480,5.0,0.5,200.0,,'1111122,1111122,1111122' 
NDBC,ioos:station:wmo:42003:1,2010-06-02T19:00:00Z,26.0070,-85.6480,5.0,0.5,150.0,,'1111122,1111122,1111122' 
NDBC,ioos:station:wmo:42003:1,2010-06-02T20:00:00Z,26.0070,-85.6480,5.0,0.5,140.0,,'1111122,1111122,1111122' 
NDBC,ioos:station:wmo:42003:1,2010-06-02T21:00:00Z,26.0070,-85.6480,5.0,1.5,170.0,,'1111122,1111122,1111122' 
NDBC,ioos:station:wmo:42003:1,2010-06-02T22:00:00Z,26.0070,-85.6480,5.0,1.5,180.0,,'1111122,1111122,1111122' 
NDBC,ioos:station:wmo:42003:1,2010-06-02T23:00:00Z,26.0070,-85.6480,5.0,2.6,170.0,,'1111122,1111122,1111122' 
NDBC,ioos:station:wmo:42003:1,2010-06-03T00:00:00Z,26.0070,-85.6480,5.0,1.5,160.0,,'1111122,1111122,1111122' 
NDBC,ioos:station:wmo:42003:1,2010-06-03T01:00:00Z,26.0070,-85.6480,5.0,1.5,140.0,,'1111122,1111122,1111122' 
NDBC,ioos:station:wmo:42003:1,2010-06-03T02:00:00Z,26.0070,-85.6480,5.0,2.6,130.0,,'1111122,1111122,1111122' 
NDBC,ioos:station:wmo:42003:1,2010-06-03T03:00:00Z,26.0070,-85.6480,5.0,3.6,140.0,,'1111122,1111122,1111122' 
NDBC,ioos:station:wmo:42003:1,2010-06-03T04:00:00Z,26.0070,-85.6480,5.0,3.6,140.0,,'1111122,1111122,1111122' 
NDBC,ioos:station:wmo:42003:1,2010-06-03T05:00:00Z,26.0070,-85.6480,5.0,3.6,140.0,,'1111122,1111122,1111122' 
NDBC,ioos:station:wmo:42003:1,2010-06-03T06:00:00Z,26.0070,-85.6480,5.0,4.6,150.0,,'1111122,1111122,1111122' 
NDBC,ioos:station:wmo:42003:1,2010-06-03T07:00:00Z,26.0070,-85.6480,5.0,4.6,150.0,,'1111122,1111122,1111122' 
NDBC,ioos:station:wmo:42003:1,2010-06-03T08:00:00Z,26.0070,-85.6480,5.0,5.7,150.0,,'1111122,1111122,1111122' 
NDBC,ioos:station:wmo:42003:1,2010-06-03T10:00:00Z,26.0070,-85.6480,5.0,5.7,160.0,,'1111122,1111122,1111122' 
NDBC,ioos:station:wmo:42003:1,2010-06-03T11:00:00Z,26.0070,-85.6480,5.0,6.7,160.0,,'1111122,1111122,1111122' 
NDBC,ioos:station:wmo:42003:1,2010-06-03T12:00:00Z,26.0070,-85.6480,5.0,6.7,180.0,,'1111122,1111122,1111122' 
NDBC,ioos:station:wmo:42003:1,2010-06-03T14:00:00Z,26.0070,-85.6480,5.0,6.7,170.0,,'1111122,1111122,1111122' 
NDBC,ioos:station:wmo:42003:1,2010-06-03T19:00:00Z,26.0070,-85.6480,5.0,4.6,180.0,,'1111122,1111122,1111122' 
NDBC,ioos:station:wmo:42003:1,2010-06-03T20:00:00Z,26.0070,-85.6480,5.0,5.7,190.0,,'1111122,1111122,1111122' 
NDBC,ioos:station:wmo:42003:1,2010-06-03T23:00:00Z,26.0070,-85.6480,5.0,7.7,200.0,,'1111122,1111122,1111122' 
NDBC,ioos:station:wmo:42003:1,2010-06-04T01:00:00Z,26.0070,-85.6480,5.0,6.7,260.0,,'1111122,1111122,1111122' 
NDBC,ioos:station:wmo:42003:1,2010-06-04T03:00:00Z,26.0070,-85.6480,5.0,5.7,180.0,,'1111122,1111122,1111122' 
NDBC,ioos:station:wmo:42003:1,2010-06-04T05:00:00Z,26.0070,-85.6480,5.0,5.7,190.0,,'1111122,1111122,1111122' 
NDBC,ioos:station:wmo:42003:1,2010-06-04T06:00:00Z,26.0070,-85.6480,5.0,5.7,190.0,,'1111122,1111122,1111122' 
NDBC,ioos:station:wmo:42003:1,2010-06-04T07:00:00Z,26.0070,-85.6480,5.0,5.7,190.0,,'1111122,1111122,1111122' 
NDBC,ioos:station:wmo:42003:1,2010-06-04T08:00:00Z,26.0070,-85.6480,5.0,5.7,180.0,,'1111122,1111122,1111122' 
NDBC,ioos:station:wmo:42003:1,2010-06-04T09:00:00Z,26.0070,-85.6480,5.0,5.7,180.0,,'1111122,1111122,1111122' 
NDBC,ioos:station:wmo:42003:1,2010-06-04T10:00:00Z,26.0070,-85.6480,5.0,5.7,170.0,,'1111122,1111122,1111122' 
NDBC,ioos:station:wmo:42003:1,2010-06-04T11:00:00Z,26.0070,-85.6480,5.0,4.6,180.0,,'1111122,1111122,1111122' 
NDBC,ioos:station:wmo:42003:1,2010-06-04T12:00:00Z,26.0070,-85.6480,5.0,5.7,180.0,,'1111122,1111122,1111122' 
NDBC,ioos:station:wmo:42003:1,2010-06-04T13:00:00Z,26.0070,-85.6480,5.0,4.6,190.0,,'1111122,1111122,1111122' 
NDBC,ioos:station:wmo:42003:1,2010-06-04T14:00:00Z,26.0070,-85.6480,5.0,5.7,180.0,,'1111122,1111122,1111122' 
NDBC,ioos:station:wmo:42003:1,2010-06-04T15:00:00Z,26.0070,-85.6480,5.0,5.7,180.0,,'1111122,1111122,1111122' 
NDBC,ioos:station:wmo:42003:1,2010-06-04T20:00:00Z,26.0070,-85.6480,5.0,6.7,190.0,,'1111122,1111122,1111122' 
NDBC,ioos:station:wmo:42003:1,2010-06-04T21:00:00Z,26.0070,-85.6480,5.0,5.7,200.0,,'1111122,1111122,1111122' 
NDBC,ioos:station:wmo:42003:1,2010-06-04T22:00:00Z,26.0070,-85.6480,5.0,3.6,210.0,,'1111122,1111122,1111122' 
NDBC,ioos:station:wmo:42003:1,2010-06-05T01:00:00Z,26.0070,-85.6480,5.0,2.6,150.0,,'1111122,1111122,1111122' 
NDBC,ioos:station:wmo:42003:1,2010-06-05T02:00:00Z,26.0070,-85.6480,5.0,2.6,150.0,,'1111122,1111122,1111122' 
NDBC,ioos:station:wmo:42003:1,2010-06-05T03:00:00Z,26.0070,-85.6480,5.0,2.6,150.0,,'1111122,1111122,1111122' 
NDBC,ioos:station:wmo:42003:1,2010-06-05T04:00:00Z,26.0070,-85.6480,5.0,2.6,140.0,,'1111122,1111122,1111122' 
NDBC,ioos:station:wmo:42003:1,2010-06-05T05:00:00Z,26.0070,-85.6480,5.0,4.6,130.0,,'1111122,1111122,1111122' 
NDBC,ioos:station:wmo:42003:1,2010-06-05T06:00:00Z,26.0070,-85.6480,5.0,4.6,130.0,,'1111122,1111122,1111122' 
NDBC,ioos:station:wmo:42003:1,2010-06-05T07:00:00Z,26.0070,-85.6480,5.0,5.7,130.0,,'1111122,1111122,1111122' 
NDBC,ioos:station:wmo:42003:1,2010-06-05T08:00:00Z,26.0070,-85.6480,5.0,5.7,130.0,,'1111122,1111122,1111122' 
NDBC,ioos:station:wmo:42003:1,2010-06-05T09:00:00Z,26.0070,-85.6480,5.0,6.7,130.0,,'1111122,1111122,1111122' 
NDBC,ioos:station:wmo:42003:1,2010-06-05T10:00:00Z,26.0070,-85.6480,5.0,6.7,130.0,,'1111122,1111122,1111122' 
NDBC,ioos:station:wmo:42003:1,2010-06-05T11:00:00Z,26.0070,-85.6480,5.0,6.7,130.0,,'1111122,1111122,1111122' 
NDBC,ioos:station:wmo:42003:1,2010-06-05T12:00:00Z,26.0070,-85.6480,5.0,9.8,140.0,,'1111122,1111122,1111122' 
NDBC,ioos:station:wmo:42003:1,2010-06-05T13:00:00Z,26.0070,-85.6480,5.0,7.7,180.0,,'1111122,1111122,1111122' 
NDBC,ioos:station:wmo:42003:1,2010-06-05T14:00:00Z,26.0070,-85.6480,5.0,5.7,170.0,,'1111122,1111122,1111122' 
NDBC,ioos:station:wmo:42003:1,2010-06-05T15:00:00Z,26.0070,-85.6480,5.0,5.7,170.0,,'1111122,1111122,1111122' 
NDBC,ioos:station:wmo:42003:1,2010-06-05T16:00:00Z,26.0070,-85.6480,5.0,5.7,180.0,,'1111122,1111122,1111122' 
NDBC,ioos:station:wmo:42003:1,2010-06-05T17:00:00Z,26.0070,-85.6480,5.0,5.7,190.0,,'1111122,1111122,1111122' 
NDBC,ioos:station:wmo:42003:1,2010-06-05T18:00:00Z,26.0070,-85.6480,5.0,5.7,200.0,,'1111122,1111122,1111122' 
NDBC,ioos:station:wmo:42003:1,2010-06-05T19:00:00Z,26.0070,-85.6480,5.0,6.7,200.0,,'1111122,1111122,1111122' 
NDBC,ioos:station:wmo:42003:1,2010-06-05T20:00:00Z,26.0070,-85.6480,5.0,4.6,210.0,,'1111122,1111122,1111122' 
NDBC,ioos:station:wmo:42003:1,2010-06-05T21:00:00Z,26.0070,-85.6480,5.0,4.6,210.0,,'1111122,1111122,1111122' 
NDBC,ioos:station:wmo:42003:1,2010-06-05T22:00:00Z,26.0070,-85.6480,5.0,3.6,210.0,,'1111122,1111122,1111122' 
NDBC,ioos:station:wmo:42003:1,2010-06-05T23:00:00Z,26.0070,-85.6480,5.0,4.6,210.0,,'1111122,1111122,1111122' 
NDBC,ioos:station:wmo:42003:1,2010-06-06T03:00:00Z,26.0070,-85.6480,5.0,3.6,160.0,,'1111122,1111122,1111122' 
NDBC,ioos:station:wmo:42003:1,2010-06-06T04:00:00Z,26.0070,-85.6480,5.0,3.6,150.0,,'1111122,1111122,1111122' 
NDBC,ioos:station:wmo:42003:1,2010-06-06T05:00:00Z,26.0070,-85.6480,5.0,4.6,140.0,,'1111122,1111122,1111122' 
NDBC,ioos:station:wmo:42003:1,2010-06-06T06:00:00Z,26.0070,-85.6480,5.0,4.6,140.0,,'1111122,1111122,1111122' 
NDBC,ioos:station:wmo:42003:1,2010-06-06T07:00:00Z,26.0070,-85.6480,5.0,4.6,150.0,,'1111122,1111122,1111122' 
NDBC,ioos:station:wmo:42003:1,2010-06-06T08:00:00Z,26.0070,-85.6480,5.0,4.6,150.0,,'1111122,1111122,1111122' 
NDBC,ioos:station:wmo:42003:1,2010-06-06T09:00:00Z,26.0070,-85.6480,5.0,5.7,150.0,,'1111122,1111122,1111122' 
NDBC,ioos:station:wmo:42003:1,2010-06-06T10:00:00Z,26.0070,-85.6480,5.0,5.7,150.0,,'1111122,1111122,1111122' 
NDBC,ioos:station:wmo:42003:1,2010-06-06T11:00:00Z,26.0070,-85.6480,5.0,6.7,150.0,,'1111122,1111122,1111122' 
NDBC,ioos:station:wmo:42003:1,2010-06-06T12:00:00Z,26.0070,-85.6480,5.0,5.7,150.0,,'1111122,1111122,1111122' 
NDBC,ioos:station:wmo:42003:1,2010-06-06T13:00:00Z,26.0070,-85.6480,5.0,4.6,150.0,,'1111122,1111122,1111122' 
NDBC,ioos:station:wmo:42003:1,2010-06-06T14:00:00Z,26.0070,-85.6480,5.0,4.6,140.0,,'1111122,1111122,1111122' 
NDBC,ioos:station:wmo:42003:1,2010-06-06T15:00:00Z,26.0070,-85.6480,5.0,4.6,150.0,,'1111122,1111122,1111122' 
NDBC,ioos:station:wmo:42003:1,2010-06-06T17:00:00Z,26.0070,-85.6480,5.0,4.6,170.0,,'1111122,1111122,1111122' 
NDBC,ioos:station:wmo:42003:1,2010-06-06T19:00:00Z,26.0070,-85.6480,5.0,4.6,170.0,,'1111122,1111122,1111122' 
NDBC,ioos:station:wmo:42003:1,2010-06-06T20:00:00Z,26.0070,-85.6480,5.0,3.6,160.0,,'1111122,1111122,1111122' 
NDBC,ioos:station:wmo:42003:1,2010-06-06T22:00:00Z,26.0070,-85.6480,5.0,5.7,220.0,,'1111122,1111122,1111122' 
NDBC,ioos:station:wmo:42003:1,2010-06-07T00:00:00Z,26.0070,-85.6480,5.0,4.6,260.0,,'1111122,1111122,1111122' 
NDBC,ioos:station:wmo:42003:1,2010-06-07T03:00:00Z,26.0070,-85.6480,5.0,4.6,280.0,,'1111122,1111122,1111122' 
NDBC,ioos:station:wmo:42003:1,2010-06-07T04:00:00Z,26.0070,-85.6480,5.0,3.6,280.0,,'1111122,1111122,1111122' 
NDBC,ioos:station:wmo:42003:1,2010-06-07T05:00:00Z,26.0070,-85.6480,5.0,1.5,230.0,,'1111122,1111122,1111122' 
NDBC,ioos:station:wmo:42003:1,2010-06-07T06:00:00Z,26.0070,-85.6480,5.0,2.6,220.0,,'1111122,1111122,1111122' 
NDBC,ioos:station:wmo:42003:1,2010-06-07T07:00:00Z,26.0070,-85.6480,5.0,2.6,200.0,,'1111122,1111122,1111122' 
NDBC,ioos:station:wmo:42003:1,2010-06-07T09:00:00Z,26.0070,-85.6480,5.0,2.6,180.0,,'1111122,1111122,1111122' 
NDBC,ioos:station:wmo:42003:1,2010-06-07T10:00:00Z,26.0070,-85.6480,5.0,2.6,190.0,,'1111122,1111122,1111122' 
NDBC,ioos:station:wmo:42003:1,2010-06-07T11:00:00Z,26.0070,-85.6480,5.0,2.6,220.0,,'1111122,1111122,1111122' 
NDBC,ioos:station:wmo:42003:1,2010-06-07T12:00:00Z,26.0070,-85.6480,5.0,1.5,210.0,,'1111122,1111122,1111122' 
NDBC,ioos:station:wmo:42003:1,2010-06-07T13:00:00Z,26.0070,-85.6480,5.0,1.5,230.0,,'1111122,1111122,1111122' 
NDBC,ioos:station:wmo:42003:1,2010-06-07T15:00:00Z,26.0070,-85.6480,5.0,1.5,290.0,,'1111122,1111122,1111122' 
NDBC,ioos:station:wmo:42003:1,2010-06-07T18:00:00Z,26.0070,-85.6480,5.0,2.6,280.0,,'1111122,1111122,1111122' 
NDBC,ioos:station:wmo:42003:1,2010-06-07T19:00:00Z,26.0070,-85.6480,5.0,2.6,310.0,,'1111122,1111122,1111122' 
NDBC,ioos:station:wmo:42003:1,2010-06-08T02:00:00Z,26.0070,-85.6480,5.0,2.6,330.0,,'1111122,1111122,1111122' 
NDBC,ioos:station:wmo:42003:1,2010-06-08T03:00:00Z,26.0070,-85.6480,5.0,3.6,340.0,,'1111122,1111122,1111122' 
NDBC,ioos:station:wmo:42003:1,2010-06-08T04:00:00Z,26.0070,-85.6480,5.0,2.6,340.0,,'1111122,1111122,1111122' 
NDBC,ioos:station:wmo:42003:1,2010-06-08T05:00:00Z,26.0070,-85.6480,5.0,2.6,340.0,,'1111122,1111122,1111122' 
NDBC,ioos:station:wmo:42003:1,2010-06-08T06:00:00Z,26.0070,-85.6480,5.0,0.5,320.0,,'1111122,1111122,1111122' 
NDBC,ioos:station:wmo:42003:1,2010-06-08T07:00:00Z,26.0070,-85.6480,5.0,1.5,300.0,,'1111122,1111122,1111122' 
NDBC,ioos:station:wmo:42003:1,2010-06-08T08:00:00Z,26.0070,-85.6480,5.0,1.5,280.0,,'1111122,1111122,1111122' 
NDBC,ioos:station:wmo:42003:1,2010-06-08T09:00:00Z,26.0070,-85.6480,5.0,1.5,270.0,,'1111122,1111122,1111122' 
NDBC,ioos:station:wmo:42003:1,2010-06-08T10:00:00Z,26.0070,-85.6480,5.0,1.5,280.0,,'1111122,1111122,1111122' 
NDBC,ioos:station:wmo:42003:1,2010-06-08T11:00:00Z,26.0070,-85.6480,5.0,1.5,280.0,,'1111122,1111122,1111122' 
NDBC,ioos:station:wmo:42003:1,2010-06-08T12:00:00Z,26.0070,-85.6480,5.0,1.5,280.0,,'1111122,1111122,1111122' 
NDBC,ioos:station:wmo:42003:1,2010-06-08T13:00:00Z,26.0070,-85.6480,5.0,1.5,300.0,,'1111122,1111122,1111122' 
NDBC,ioos:station:wmo:42003:1,2010-06-08T14:00:00Z,26.0070,-85.6480,5.0,1.5,320.0,,'1111122,1111122,1111122' 
NDBC,ioos:station:wmo:42003:1,2010-06-08T15:00:00Z,26.0070,-85.6480,5.0,1.5,300.0,,'1111122,1111122,1111122' 
NDBC,ioos:station:wmo:42003:1,2010-06-08T16:00:00Z,26.0070,-85.6480,5.0,1.5,290.0,,'1111122,1111122,1111122' 
NDBC,ioos:station:wmo:42003:1,2010-06-08T17:00:00Z,26.0070,-85.6480,5.0,2.6,310.0,,'1111122,1111122,1111122' 
NDBC,ioos:station:wmo:42003:1,2010-06-08T18:00:00Z,26.0070,-85.6480,5.0,2.6,320.0,,'1111122,1111122,1111122' 
NDBC,ioos:station:wmo:42003:1,2010-06-08T19:00:00Z,26.0070,-85.6480,5.0,3.6,340.0,,'1111122,1111122,1111122' 
NDBC,ioos:station:wmo:42003:1,2010-06-08T20:00:00Z,26.0070,-85.6480,5.0,3.6,350.0,,'1111122,1111122,1111122' 
NDBC,ioos:station:wmo:42003:1,2010-06-08T21:00:00Z,26.0070,-85.6480,5.0,3.6,360.0,,'1111122,1111122,1111122' 
NDBC,ioos:station:wmo:42003:1,2010-06-08T22:00:00Z,26.0070,-85.6480,5.0,2.6,10.0,,'1111122,1111122,1111122' 
NDBC,ioos:station:wmo:42003:1,2010-06-08T23:00:00Z,26.0070,-85.6480,5.0,2.6,10.0,,'1111122,1111122,1111122' 
NDBC,ioos:station:wmo:42003:1,2010-06-09T00:00:00Z,26.0070,-85.6480,5.0,2.6,30.0,,'1111122,1111122,1111122' 
NDBC,ioos:station:wmo:42003:1,2010-06-09T01:00:00Z,26.0070,-85.6480,5.0,2.6,30.0,,'1111122,1111122,1111122' 
NDBC,ioos:station:wmo:42003:1,2010-06-09T02:00:00Z,26.0070,-85.6480,5.0,1.5,60.0,,'1111122,1111122,1111122' 
NDBC,ioos:station:wmo:42003:1,2010-06-09T03:00:00Z,26.0070,-85.6480,5.0,2.6,70.0,,'1111122,1111122,1111122' 
NDBC,ioos:station:wmo:42003:1,2010-06-09T04:00:00Z,26.0070,-85.6480,5.0,2.6,60.0,,'1111122,1111122,1111122' 
NDBC,ioos:station:wmo:42003:1,2010-06-09T05:00:00Z,26.0070,-85.6480,5.0,2.6,70.0,,'1111122,1111122,1111122' 
NDBC,ioos:station:wmo:42003:1,2010-06-09T06:00:00Z,26.0070,-85.6480,5.0,3.6,80.0,,'1111122,1111122,1111122' 
NDBC,ioos:station:wmo:42003:1,2010-06-09T07:00:00Z,26.0070,-85.6480,5.0,2.6,110.0,,'1111122,1111122,1111122' 
NDBC,ioos:station:wmo:42003:1,2010-06-09T08:00:00Z,26.0070,-85.6480,5.0,3.6,100.0,,'1111122,1111122,1111122' 
NDBC,ioos:station:wmo:42003:1,2010-06-09T09:00:00Z,26.0070,-85.6480,5.0,2.6,120.0,,'1111122,1111122,1111122' 
NDBC,ioos:station:wmo:42003:1,2010-06-09T10:00:00Z,26.0070,-85.6480,5.0,1.5,130.0,,'1111122,1111122,1111122' 
NDBC,ioos:station:wmo:42003:1,2010-06-09T11:00:00Z,26.0070,-85.6480,5.0,0.5,130.0,,'1111122,1111122,1111122' 
NDBC,ioos:station:wmo:42003:1,2010-06-09T12:00:00Z,26.0070,-85.6480,5.0,1.5,80.0,,'1111122,1111122,1111122' 
NDBC,ioos:station:wmo:42003:1,2010-06-09T13:00:00Z,26.0070,-85.6480,5.0,1.5,60.0,,'1111122,1111122,1111122' 
NDBC,ioos:station:wmo:42003:1,2010-06-09T14:00:00Z,26.0070,-85.6480,5.0,0.5,60.0,,'1111122,1111122,1111122' 
NDBC,ioos:station:wmo:42003:1,2010-06-09T15:00:00Z,26.0070,-85.6480,5.0,2.6,90.0,,'1111122,1111122,1111122' 
NDBC,ioos:station:wmo:42003:1,2010-06-09T16:00:00Z,26.0070,-85.6480,5.0,1.5,90.0,,'1111122,1111122,1111122' 
NDBC,ioos:station:wmo:42003:1,2010-06-09T17:00:00Z,26.0070,-85.6480,5.0,1.5,80.0,,'1111122,1111122,1111122' 
NDBC,ioos:station:wmo:42003:1,2010-06-09T18:00:00Z,26.0070,-85.6480,5.0,1.5,70.0,,'1111122,1111122,1111122' 
NDBC,ioos:station:wmo:42003:1,2010-06-09T22:00:00Z,26.0070,-85.6480,5.0,5.7,90.0,,'1111122,1111122,1111122' 
NDBC,ioos:station:wmo:42003:1,2010-06-10T01:00:00Z,26.0070,-85.6480,5.0,5.7,90.0,,'1111122,1111122,1111122' 
NDBC,ioos:station:wmo:42003:1,2010-06-10T02:00:00Z,26.0070,-85.6480,5.0,5.7,100.0,,'1111122,1111122,1111122' 
NDBC,ioos:station:wmo:42003:1,2010-06-10T05:00:00Z,26.0070,-85.6480,5.0,3.6,100.0,,'1111122,1111122,1111122' 
NDBC,ioos:station:wmo:42003:1,2010-06-10T06:00:00Z,26.0070,-85.6480,5.0,2.6,110.0,,'1111122,1111122,1111122' 
NDBC,ioos:station:wmo:42003:1,2010-06-10T07:00:00Z,26.0070,-85.6480,5.0,3.6,110.0,,'1111122,1111122,1111122' 
NDBC,ioos:station:wmo:42003:1,2010-06-10T08:00:00Z,26.0070,-85.6480,5.0,3.6,120.0,,'1111122,1111122,1111122' 
NDBC,ioos:station:wmo:42003:1,2010-06-10T09:00:00Z,26.0070,-85.6480,5.0,3.6,120.0,,'1111122,1111122,1111122' 
NDBC,ioos:station:wmo:42003:1,2010-06-10T10:00:00Z,26.0070,-85.6480,5.0,3.6,120.0,,'1111122,1111122,1111122' 
NDBC,ioos:station:wmo:42003:1,2010-06-10T11:00:00Z,26.0070,-85.6480,5.0,3.6,120.0,,'1111122,1111122,1111122' 
NDBC,ioos:station:wmo:42003:1,2010-06-10T12:00:00Z,26.0070,-85.6480,5.0,1.5,90.0,,'1111122,1111122,1111122' 
NDBC,ioos:station:wmo:42003:1,2010-06-10T13:00:00Z,26.0070,-85.6480,5.0,1.5,80.0,,'1111122,1111122,1111122' 
NDBC,ioos:station:wmo:42003:1,2010-06-10T14:00:00Z,26.0070,-85.6480,5.0,2.6,60.0,,'1111122,1111122,1111122' 
NDBC,ioos:station:wmo:42003:1,2010-06-10T15:00:00Z,26.0070,-85.6480,5.0,2.6,70.0,,'1111122,1111122,1111122' 
NDBC,ioos:station:wmo:42003:1,2010-06-10T16:00:00Z,26.0070,-85.6480,5.0,1.5,60.0,,'1111122,1111122,1111122' 
NDBC,ioos:station:wmo:42003:1,2010-06-10T17:00:00Z,26.0070,-85.6480,5.0,1.5,90.0,,'1111122,1111122,1111122' 
NDBC,ioos:station:wmo:42003:1,2010-06-11T00:00:00Z,26.0070,-85.6480,5.0,1.5,140.0,,'1111122,1111122,1111122' 
NDBC,ioos:station:wmo:42003:1,2010-06-11T01:00:00Z,26.0070,-85.6480,5.0,1.5,140.0,,'1111122,1111122,1111122' 
NDBC,ioos:station:wmo:42003:1,2010-06-11T02:00:00Z,26.0070,-85.6480,5.0,3.6,150.0,,'1111122,1111122,1111122' 
NDBC,ioos:station:wmo:42003:1,2010-06-11T04:00:00Z,26.0070,-85.6480,5.0,2.6,130.0,,'1111122,1111122,1111122' 
NDBC,ioos:station:wmo:42003:1,2010-06-11T05:00:00Z,26.0070,-85.6480,5.0,4.6,120.0,,'1111122,1111122,1111122' 
NDBC,ioos:station:wmo:42003:1,2010-06-11T06:00:00Z,26.0070,-85.6480,5.0,3.6,120.0,,'1111122,1111122,1111122' 
NDBC,ioos:station:wmo:42003:1,2010-06-11T07:00:00Z,26.0070,-85.6480,5.0,3.6,130.0,,'1111122,1111122,1111122' 
NDBC,ioos:station:wmo:42003:1,2010-06-11T08:00:00Z,26.0070,-85.6480,5.0,4.6,140.0,,'1111122,1111122,1111122' 
NDBC,ioos:station:wmo:42003:1,2010-06-11T09:00:00Z,26.0070,-85.6480,5.0,4.6,130.0,,'1111122,1111122,1111122' 
NDBC,ioos:station:wmo:42003:1,2010-06-11T10:00:00Z,26.0070,-85.6480,5.0,4.6,140.0,,'1111122,1111122,1111122' 
NDBC,ioos:station:wmo:42003:1,2010-06-11T11:00:00Z,26.0070,-85.6480,5.0,3.6,130.0,,'1111122,1111122,1111122' 
NDBC,ioos:station:wmo:42003:1,2010-06-11T12:00:00Z,26.0070,-85.6480,5.0,3.6,130.0,,'1111122,1111122,1111122' 
NDBC,ioos:station:wmo:42003:1,2010-06-11T13:00:00Z,26.0070,-85.6480,5.0,2.6,150.0,,'1111122,1111122,1111122' 
NDBC,ioos:station:wmo:42003:1,2010-06-11T14:00:00Z,26.0070,-85.6480,5.0,2.6,140.0,,'1111122,1111122,1111122' 
NDBC,ioos:station:wmo:42003:1,2010-06-11T15:00:00Z,26.0070,-85.6480,5.0,3.6,140.0,,'1111122,1111122,1111122' 
NDBC,ioos:station:wmo:42003:1,2010-06-11T16:00:00Z,26.0070,-85.6480,5.0,3.6,120.0,,'1111122,1111122,1111122' 
NDBC,ioos:station:wmo:42003:1,2010-06-11T17:00:00Z,26.0070,-85.6480,5.0,3.6,130.0,,'1111122,1111122,1111122' 
NDBC,ioos:station:wmo:42003:1,2010-06-11T18:00:00Z,26.0070,-85.6480,5.0,3.6,140.0,,'1111122,1111122,1111122' 
NDBC,ioos:station:wmo:42003:1,2010-06-11T19:00:00Z,26.0070,-85.6480,5.0,2.6,120.0,,'1111122,1111122,1111122' 
NDBC,ioos:station:wmo:42003:1,2010-06-11T20:00:00Z,26.0070,-85.6480,5.0,2.6,120.0,,'1111122,1111122,1111122' 
NDBC,ioos:station:wmo:42003:1,2010-06-11T21:00:00Z,26.0070,-85.6480,5.0,2.6,110.0,,'1111122,1111122,1111122' 
NDBC,ioos:station:wmo:42003:1,2010-06-11T22:00:00Z,26.0070,-85.6480,5.0,3.6,90.0,,'1111122,1111122,1111122' 
NDBC,ioos:station:wmo:42003:1,2010-06-11T23:00:00Z,26.0070,-85.6480,5.0,4.6,100.0,,'1111122,1111122,1111122' 
NDBC,ioos:station:wmo:42003:1,2010-06-12T00:00:00Z,26.0070,-85.6480,5.0,3.6,90.0,,'1111122,1111122,1111122' 
NDBC,ioos:station:wmo:42003:1,2010-06-12T01:00:00Z,26.0070,-85.6480,5.0,3.6,70.0,,'1111122,1111122,1111122' 
NDBC,ioos:station:wmo:42003:1,2010-06-12T02:00:00Z,26.0070,-85.6480,5.0,3.6,90.0,,'1111122,1111122,1111122' 
NDBC,ioos:station:wmo:42003:1,2010-06-12T03:00:00Z,26.0070,-85.6480,5.0,3.6,80.0,,'1111122,1111122,1111122' 
NDBC,ioos:station:wmo:42003:1,2010-06-12T04:00:00Z,26.0070,-85.6480,5.0,3.6,70.0,,'1111122,1111122,1111122' 
NDBC,ioos:station:wmo:42003:1,2010-06-12T05:00:00Z,26.0070,-85.6480,5.0,3.6,80.0,,'1111122,1111122,1111122' 
NDBC,ioos:station:wmo:42003:1,2010-06-12T06:00:00Z,26.0070,-85.6480,5.0,3.6,100.0,,'1111122,1111122,1111122' 
NDBC,ioos:station:wmo:42003:1,2010-06-12T07:00:00Z,26.0070,-85.6480,5.0,3.6,120.0,,'1111122,1111122,1111122' 
NDBC,ioos:station:wmo:42003:1,2010-06-12T08:00:00Z,26.0070,-85.6480,5.0,3.6,130.0,,'1111122,1111122,1111122' 
NDBC,ioos:station:wmo:42003:1,2010-06-12T09:00:00Z,26.0070,-85.6480,5.0,2.6,150.0,,'1111122,1111122,1111122' 
NDBC,ioos:station:wmo:42003:1,2010-06-12T10:00:00Z,26.0070,-85.6480,5.0,1.5,150.0,,'1111122,1111122,1111122' 
NDBC,ioos:station:wmo:42003:1,2010-06-12T11:00:00Z,26.0070,-85.6480,5.0,2.6,150.0,,'1111122,1111122,1111122' 
NDBC,ioos:station:wmo:42003:1,2010-06-12T12:00:00Z,26.0070,-85.6480,5.0,1.5,120.0,,'1111122,1111122,1111122' 
NDBC,ioos:station:wmo:42003:1,2010-06-12T13:00:00Z,26.0070,-85.6480,5.0,1.5,100.0,,'1111122,1111122,1111122' 
NDBC,ioos:station:wmo:42003:1,2010-06-12T14:00:00Z,26.0070,-85.6480,5.0,1.5,50.0,,'1111122,1111122,1111122' 
NDBC,ioos:station:wmo:42003:1,2010-06-12T15:00:00Z,26.0070,-85.6480,5.0,2.6,60.0,,'1111122,1111122,1111122' 
NDBC,ioos:station:wmo:42003:1,2010-06-12T16:00:00Z,26.0070,-85.6480,5.0,2.6,50.0,,'1111122,1111122,1111122' 
NDBC,ioos:station:wmo:42003:1,2010-06-12T17:00:00Z,26.0070,-85.6480,5.0,3.6,30.0,,'1111122,1111122,1111122' 
NDBC,ioos:station:wmo:42003:1,2010-06-12T18:00:00Z,26.0070,-85.6480,5.0,4.6,40.0,,'1111122,1111122,1111122' 
NDBC,ioos:station:wmo:42003:1,2010-06-12T19:00:00Z,26.0070,-85.6480,5.0,4.6,40.0,,'1111122,1111122,1111122' 
NDBC,ioos:station:wmo:42003:1,2010-06-12T20:00:00Z,26.0070,-85.6480,5.0,4.6,30.0,,'1111122,1111122,1111122' 
NDBC,ioos:station:wmo:42003:1,2010-06-12T21:00:00Z,26.0070,-85.6480,5.0,4.6,40.0,,'1111122,1111122,1111122' 
NDBC,ioos:station:wmo:42003:1,2010-06-12T22:00:00Z,26.0070,-85.6480,5.0,4.6,40.0,,'1111122,1111122,1111122' 
NDBC,ioos:station:wmo:42003:1,2010-06-12T23:00:00Z,26.0070,-85.6480,5.0,3.6,50.0,,'1111122,1111122,1111122' 
NDBC,ioos:station:wmo:42003:1,2010-06-13T00:00:00Z,26.0070,-85.6480,5.0,3.6,50.0,,'1111122,1111122,1111122' 
NDBC,ioos:station:wmo:42003:1,2010-06-13T01:00:00Z,26.0070,-85.6480,5.0,3.6,80.0,,'1111122,1111122,1111122' 
NDBC,ioos:station:wmo:42003:1,2010-06-13T02:00:00Z,26.0070,-85.6480,5.0,3.6,70.0,,'1111122,1111122,1111122' 
NDBC,ioos:station:wmo:42003:1,2010-06-13T03:00:00Z,26.0070,-85.6480,5.0,3.6,70.0,,'1111122,1111122,1111122' 
NDBC,ioos:station:wmo:42003:1,2010-06-13T04:00:00Z,26.0070,-85.6480,5.0,2.6,60.0,,'1111122,1111122,1111122' 
NDBC,ioos:station:wmo:42003:1,2010-06-13T05:00:00Z,26.0070,-85.6480,5.0,3.6,50.0,,'1111122,1111122,1111122' 